Wind_Speed
7 7 8 11 12 13 13 12 11 10 10 10 9 9 8 7 7 8 7 5 4 4 3 4 3 3 4 5 5 5 7 8 9 13 16 15 14 14 14 13 13 14 14 14 14 15 14 14 13
8 8 9 11 11 12 12 11 11 11 11 11 11 9 9 9 8 6 5 6 6 6 7 6 6 6 5 6 5 5 6 7 8 9 9 10 12 14 15 15 15 14 14 14 14 14 14 13 12
6 8 9 10 11 11 11 11 10 11 10 10 10 10 10 10 9 9 6 4 5 7 8 9 9 8 9 8 7 8 8 7 7 8 9 10 11 13 15 16 17 17 16 15 14 14 14 13 12
4 5 6 8 8 9 10 10 10 9 10 9 8 8 8 9 9 8 8 7 4 5 7 9 11 11 10 10 11 10 10 11 11 11 11 11 12 13 14 15 16 17 16 16 15 14 13 13 13
6 6 7 8 10 9 10 11 10 8 8 9 9 10 7 8 8 8 8 8 7 5 4 7 9 12 13 12 11 12 13 14 13 13 13 13 14 15 15 16 17 17 16 15 15 14 14 14 14
10 11 11 12 13 14 13 13 13 12 11 10 12 13 11 9 9 9 8 8 7 6 6 5 6 9 12 14 14 14 13 13 14 16 16 15 15 15 16 18 18 18 17 17 17 17 18 16 15
15 15 15 16 16 17 16 17 16 16 17 15 16 16 16 13 12 13 12 11 11 10 8 7 8 8 9 11 14 16 16 16 16 16 17 19 19 18 18 18 19 19 19 19 18 17 17 16 15
20 21 19 21 21 20 19 20 20 19 20 21 21 20 19 19 19 18 16 15 14 14 13 12 11 10 10 11 11 13 15 16 18 19 19 20 21 22 22 21 20 20 20 20 20 20 19 19 18
22 23 23 23 23 23 22 22 23 21 21 24 25 23 22 22 22 22 22 21 19 18 17 14 15 13 13 14 13 13 13 15 16 18 19 19 20 22 23 24 26 25 24 23 23 24 24 24 23
24 22 23 24 25 24 24 24 26 24 23 27 26 27 25 24 25 25 26 27 25 23 22 21 21 19 17 16 16 17 17 17 17 18 19 20 21 22 23 24 26 28 29 29 28 27 27 27 27
25 23 25 25 26 25 24 23 26 26 21 29 27 29 27 25 25 27 28 28 28 29 27 27 26 25 23 22 21 21 21 20 20 21 21 22 24 24 24 25 26 27 29 31 32 32 31 31 30
28 25 27 25 26 27 27 26 27 27 21 29 30 27 26 25 22 25 26 26 29 32 34 33 30 30 29 27 27 26 25 26 26 26 25 26 26 26 26 27 27 28 30 31 32 33 34 34 33
29 28 29 29 28 30 32 28 35 22 27 30 28 26 28 28 25 23 22 24 25 28 32 33 33 33 33 32 32 32 31 30 30 30 31 30 31 31 30 29 29 29 30 32 32 33 34 35 36
34 33 30 30 31 36 40 33 34 23 35 31 30 29 28 27 27 25 25 26 27 29 30 29 29 30 33 35 35 35 34 35 34 34 35 35 35 35 35 34 33 33 33 34 35 35 35 35 35
37 37 35 30 34 43 45 38 32 32 38 33 33 31 30 29 29 28 29 29 30 32 34 32 30 27 27 29 30 32 33 34 36 36 37 37 37 37 37 37 37 37 36 36 36 37 38 38 37
41 44 41 31 36 43 48 43 32 40 39 35 31 31 31 30 32 33 36 36 37 34 34 35 35 33 32 30 30 29 28 29 30 32 34 35 36 37 38 38 39 40 39 38 38 39 39 39 40
43 47 45 41 33 40 49 51 34 37 41 36 34 32 31 33 31 38 38 38 35 33 34 33 34 35 36 35 33 30 30 30 30 32 33 33 36 37 38 40 41 41 40 39 40 41 42 41 40
49 48 48 48 36 42 50 52 48 38 41 35 34 33 33 35 34 39 41 39 36 35 34 33 35 35 37 37 37 34 32 31 33 35 37 36 35 37 39 39 41 43 42 41 41 44 44 43 42
50 52 51 46 46 52 48 52 49 42 39 35 33 35 37 39 38 39 35 37 38 36 34 31 29 31 32 35 35 35 35 36 36 36 38 39 38 37 39 40 41 42 43 44 45 45 45 45 45
51 55 56 54 51 53 54 52 51 52 42 40 36 34 35 34 33 34 33 37 34 40 41 38 36 34 33 35 36 35 35 36 39 41 42 42 41 41 44 43 44 44 44 45 44 44 47 49 47
51 56 57 61 57 56 57 57 56 49 47 40 38 34 34 36 37 37 40 41 43 39 40 41 32 33 34 33 33 34 34 37 39 40 43 47 48 46 48 48 48 47 46 46 47 47 49 49 49
57 52 54 57 61 59 58 61 58 55 50 52 48 41 40 39 38 39 40 42 47 45 37 36 38 40 41 41 40 39 40 40 43 44 43 44 47 50 51 51 51 51 51 50 49 50 48 48 48
58 57 58 60 62 65 62 62 63 58 56 53 53 48 49 44 43 42 40 42 45 48 46 49 51 50 48 46 45 46 47 48 47 45 46 48 50 51 51 52 52 53 55 53 53 53 54 53 54
60 62 63 64 61 66 63 62 69 63 59 49 45 36 39 33 33 38 42 46 49 53 54 55 55 54 53 50 48 47 52 52 50 51 52 50 49 52 54 55 54 54 55 55 56 54 55 55 55
50 52 57 60 62 62 63 65 66 67 64 56 45 44 53 56 55 55 53 53 57 55 56 56 58 60 58 56 55 54 54 55 55 56 57 58 56 57 59 59 60 62 61 59 59 59 59 59 60
49 50 51 51 58 62 61 64 65 65 65 68 64 64 66 65 64 59 60 58 58 56 57 60 60 62 64 63 59 61 60 58 58 59 59 60 61 62 64 64 66 66 66 67 65 63 62 63 63
55 57 56 61 63 67 64 63 65 66 67 64 64 64 64 65 62 65 69 71 69 63 62 62 63 64 65 67 68 68 69 68 67 65 64 62 63 64 68 69 71 72 73 72 70 68 66 66 66
60 60 63 65 67 68 67 72 68 64 65 64 64 64 64 67 69 69 69 71 70 69 70 68 69 68 67 63 64 65 68 69 70 68 69 69 68 66 68 71 74 74 76 76 75 75 73 70 68
62 66 66 62 52 56 60 64 59 67 74 76 76 72 67 66 67 70 69 66 66 61 61 66 66 66 65 62 62 63 62 62 62 67 72 69 68 72 72 71 73 73 72 75 78 81 78 76 72
59 60 59 66 69 74 81 82 75 75 71 66 66 64 65 61 61 66 72 73 76 77 77 74 68 69 73 70 62 68 65 66 66 69 75 78 74 72 72 76 77 75 70 69 73 76 79 77 71
Wind_Direction
37 45 52 54 51 51 46 43 41 36 36 30 20 4 358 343 321 308 303 290 260 244 218 179 167 146 140 134 151 177 187 195 201 195 191 197 204 204 202 210 203 200 199 205 206 215 216 222 225
40 45 45 42 44 43 45 43 40 41 36 29 21 12 3 0 355 346 298 280 270 250 237 225 207 197 182 186 190 186 194 201 210 213 213 210 201 203 204 201 211 208 206 211 215 216 213 215 212
45 38 34 25 24 31 34 33 34 26 29 26 19 11 0 358 354 353 344 299 262 260 245 237 228 217 211 204 205 210 213 213 214 223 226 226 221 210 209 206 205 204 204 211 213 214 213 209 206
30 17 6 10 2 4 7 11 12 14 11 8 358 353 356 354 351 338 343 340 301 251 255 241 236 232 227 221 215 215 223 226 225 226 231 231 230 226 222 218 214 212 207 208 209 212 216 215 216
339 336 333 331 332 332 333 331 333 336 335 332 325 321 335 337 344 335 322 325 325 314 259 253 243 238 238 235 231 226 224 227 227 229 227 229 231 232 234 228 224 222 219 218 221 222 222 226 227
311 309 309 309 308 309 311 312 309 306 299 298 292 297 307 315 320 320 312 302 305 310 308 284 248 241 241 243 246 246 241 238 238 236 234 231 232 234 235 236 235 233 229 227 232 234 234 232 236
303 301 296 295 296 296 297 298 292 293 290 285 282 286 293 300 297 294 296 295 290 286 283 288 285 270 252 244 246 251 255 255 251 247 243 242 237 234 236 241 241 240 239 239 239 242 241 239 240
297 299 291 294 294 291 292 290 289 289 287 283 279 278 283 288 287 285 282 281 282 282 281 279 272 270 269 266 256 252 253 254 259 258 253 247 245 244 243 242 245 248 250 249 245 242 242 246 247
296 297 294 294 295 293 292 289 287 287 284 281 278 279 279 280 279 281 283 279 277 278 277 276 273 272 271 267 265 261 260 261 259 261 261 258 255 251 249 248 249 250 252 254 254 255 254 253 253
289 291 293 294 293 294 294 294 290 290 286 282 284 285 287 282 279 278 279 282 281 275 274 274 272 270 269 269 269 267 265 260 261 263 265 266 264 261 257 254 252 252 252 253 256 257 257 259 259
292 296 289 291 290 292 293 289 291 287 289 281 289 290 297 291 278 276 275 274 276 279 275 269 269 269 268 267 267 269 270 268 267 267 266 266 266 266 266 263 260 257 254 254 256 259 261 262 262
292 294 290 295 293 296 291 293 284 283 289 281 290 296 294 292 293 280 277 275 274 277 276 275 269 267 269 269 268 268 269 270 270 269 270 268 267 265 265 265 265 264 263 262 262 261 261 261 260
292 292 294 292 292 290 287 289 282 301 283 276 285 288 286 288 290 283 283 277 271 276 277 273 269 265 265 267 266 264 266 268 270 272 272 270 269 268 266 265 265 266 266 265 265 265 265 264 262
292 291 290 292 292 285 281 277 288 299 278 285 284 283 285 290 289 287 282 276 272 270 273 273 270 266 266 268 267 267 268 269 268 268 269 270 270 271 271 270 269 269 269 268 267 265 265 265 262
289 288 289 295 285 279 280 282 289 277 280 283 284 287 291 293 291 287 280 272 269 267 270 276 277 279 278 277 277 274 270 269 269 269 270 269 269 268 269 269 271 270 269 268 267 266 264 262 261
287 287 285 280 283 286 284 284 283 280 280 282 287 290 292 289 284 283 277 271 269 269 270 272 278 279 280 280 278 276 272 270 269 271 271 272 271 269 267 267 267 269 269 271 270 269 269 265 263
287 285 287 286 285 282 282 284 281 278 282 286 286 282 279 274 276 275 277 279 280 278 274 272 271 274 274 275 276 275 269 269 269 272 274 272 267 266 266 266 266 266 267 270 272 271 269 266 264
283 287 288 287 290 278 278 283 284 281 281 285 282 279 275 270 267 271 278 281 281 278 274 268 263 262 265 265 269 270 270 271 270 267 266 266 267 265 265 267 268 268 270 270 268 267 269 268 265
282 283 285 289 288 283 281 286 288 286 281 279 277 273 273 275 275 270 272 274 275 275 271 267 264 261 260 261 264 266 267 264 268 270 272 274 269 267 266 269 270 267 264 264 265 265 265 265 262
279 283 282 284 281 279 283 281 284 284 287 282 276 275 276 273 269 267 269 271 264 279 278 274 273 267 261 258 258 259 258 262 265 267 269 270 269 266 264 264 267 271 268 265 263 262 261 262 261
276 276 281 283 283 282 282 283 280 283 286 281 276 274 268 268 272 265 271 267 265 269 268 267 262 269 269 263 259 257 254 253 256 261 265 266 264 263 265 266 268 269 270 269 270 272 269 264 262
270 273 274 277 280 281 281 282 283 286 285 282 280 276 273 271 267 266 264 263 266 265 261 255 268 275 279 276 269 263 258 254 252 251 252 257 261 263 263 262 264 265 268 271 271 269 271 272 269
268 271 272 272 273 277 277 280 283 283 283 284 287 286 279 273 270 268 259 260 258 260 261 264 267 273 274 277 278 277 276 276 270 260 255 254 254 257 259 261 261 264 267 266 265 266 267 264 264
273 272 270 269 269 272 274 277 279 283 283 291 286 276 272 269 263 260 269 266 259 257 261 267 266 268 273 273 272 276 280 275 270 270 270 267 263 263 263 262 261 260 260 263 266 263 263 262 261
273 276 277 274 269 269 271 270 271 277 279 279 276 267 272 281 277 273 269 263 262 263 263 262 264 265 270 275 275 273 270 270 270 273 273 271 263 260 262 262 261 262 258 254 254 257 260 259 259
263 266 267 272 271 267 266 267 270 271 276 276 274 274 275 280 279 279 278 276 273 270 267 268 269 269 267 268 269 270 269 271 269 265 262 262 264 262 260 259 261 261 262 263 258 255 254 255 258
268 267 269 273 266 269 265 262 264 269 271 278 282 281 276 275 279 279 279 280 280 280 280 276 272 270 271 270 267 265 268 271 272 270 265 262 257 256 257 260 260 258 259 259 261 260 258 254 252
279 276 276 275 277 279 272 265 266 270 275 277 281 280 278 278 279 280 280 280 281 280 278 276 276 276 276 273 272 268 266 266 268 269 268 268 268 264 259 258 259 258 259 259 257 259 258 256 255
278 278 280 280 267 264 259 263 266 271 276 275 277 279 275 273 274 276 280 283 280 276 275 277 277 275 270 264 259 261 265 267 259 254 256 261 265 268 268 265 261 260 258 258 261 260 256 255 250
274 274 274 269 274 272 271 272 278 277 281 280 278 276 274 267 271 277 279 278 277 277 276 275 274 272 269 262 252 260 266 267 262 260 256 259 263 266 263 264 266 264 259 261 260 259 260 254 253
Height
5886 5885 5884 5883 5884 5880 5879 5878 5876 5875 5873 5872 5871 5870 5869 5867 5866 5867 5864 5864 5864 5865 5865 5864 5864 5863 5863 5863 5863 5863 5863 5863 5863 5864 5864 5864 5865 5865 5866 5867 5868 5868 5869 5870 5870 5871 5872 5873 5874
5886 5885 5884 5883 5883 5881 5880 5879 5877 5875 5874 5872 5871 5870 5869 5868 5865 5864 5863 5862 5862 5862 5863 5863 5863 5863 5863 5863 5864 5864 5864 5864 5863 5864 5864 5864 5864 5864 5865 5865 5866 5867 5868 5868 5869 5870 5870 5870 5871
5886 5885 5885 5883 5882 5881 5881 5879 5878 5876 5874 5873 5871 5870 5868 5867 5865 5864 5862 5860 5860 5860 5860 5861 5861 5862 5862 5863 5863 5863 5864 5864 5864 5863 5864 5864 5865 5864 5864 5865 5865 5866 5866 5867 5867 5868 5868 5868 5868
5886 5886 5885 5883 5882 5881 5880 5878 5877 5876 5874 5872 5871 5869 5868 5866 5864 5863 5862 5861 5859 5858 5858 5858 5859 5860 5860 5860 5861 5861 5862 5863 5863 5863 5863 5864 5864 5864 5864 5864 5864 5864 5864 5864 5865 5865 5866 5866 5867
5886 5885 5884 5882 5881 5880 5879 5877 5875 5874 5872 5871 5869 5867 5866 5865 5864 5862 5861 5860 5859 5858 5856 5856 5856 5856 5857 5858 5858 5859 5860 5861 5862 5862 5862 5862 5863 5863 5863 5863 5864 5863 5863 5863 5864 5864 5864 5865 5866
5885 5884 5883 5881 5880 5878 5877 5875 5874 5872 5870 5869 5866 5865 5865 5864 5862 5861 5860 5858 5857 5856 5856 5855 5854 5854 5854 5854 5855 5855 5856 5857 5858 5859 5859 5860 5860 5861 5861 5861 5862 5862 5862 5863 5863 5863 5864 5864 5864
5883 5882 5880 5878 5877 5876 5874 5873 5871 5869 5867 5866 5864 5863 5862 5861 5860 5858 5858 5857 5855 5854 5853 5853 5852 5852 5851 5851 5851 5852 5852 5853 5853 5854 5856 5856 5857 5858 5858 5858 5859 5859 5860 5860 5860 5860 5861 5860 5861
5880 5879 5877 5875 5874 5873 5871 5869 5867 5867 5865 5863 5862 5861 5860 5859 5857 5856 5855 5854 5853 5852 5851 5851 5850 5849 5848 5848 5848 5848 5848 5848 5849 5850 5851 5851 5852 5852 5853 5854 5855 5855 5856 5856 5857 5857 5857 5857 5858
5876 5875 5873 5872 5870 5869 5868 5866 5864 5863 5861 5858 5857 5858 5857 5856 5854 5853 5852 5851 5850 5850 5849 5848 5847 5847 5846 5846 5845 5845 5845 5846 5845 5845 5845 5846 5846 5847 5847 5848 5849 5849 5850 5851 5851 5852 5852 5853 5853
5871 5870 5868 5866 5865 5864 5863 5862 5858 5859 5858 5853 5854 5852 5853 5852 5850 5849 5847 5846 5846 5846 5846 5845 5844 5844 5843 5843 5843 5843 5842 5842 5842 5842 5842 5842 5842 5842 5842 5842 5843 5844 5844 5845 5845 5846 5846 5846 5847
5867 5866 5863 5862 5859 5858 5857 5856 5853 5852 5854 5846 5849 5848 5847 5846 5845 5843 5842 5841 5840 5839 5840 5840 5840 5839 5839 5839 5839 5839 5839 5839 5838 5838 5838 5838 5837 5837 5837 5837 5837 5837 5838 5839 5839 5839 5840 5840 5841
5860 5861 5858 5857 5854 5851 5850 5850 5847 5846 5848 5842 5842 5842 5841 5839 5839 5838 5837 5837 5835 5834 5833 5833 5833 5834 5834 5834 5834 5834 5834 5834 5834 5833 5833 5833 5832 5831 5831 5831 5831 5831 5831 5831 5831 5832 5832 5833 5833
5854 5855 5853 5851 5849 5845 5841 5843 5837 5843 5839 5836 5836 5837 5834 5833 5833 5833 5832 5831 5828 5827 5825 5824 5825 5826 5826 5828 5828 5828 5828 5828 5827 5827 5827 5827 5826 5826 5826 5825 5825 5825 5824 5825 5824 5824 5825 5825 5825
5847 5846 5846 5845 5843 5837 5832 5836 5832 5839 5828 5830 5829 5829 5828 5828 5827 5827 5826 5824 5823 5820 5818 5817 5818 5818 5819 5821 5821 5821 5822 5822 5821 5821 5820 5820 5820 5820 5820 5819 5819 5817 5817 5817 5817 5817 5818 5818 5818
5837 5836 5837 5840 5836 5826 5823 5829 5832 5828 5822 5825 5823 5823 5822 5822 5821 5819 5817 5816 5814 5814 5812 5812 5812 5813 5814 5814 5814 5814 5814 5813 5813 5813 5813 5812 5812 5812 5812 5811 5811 5811 5810 5810 5810 5810 5810 5810 5811
5828 5825 5827 5834 5828 5821 5814 5818 5827 5818 5817 5818 5819 5818 5815 5814 5811 5808 5806 5804 5803 5806 5808 5806 5806 5805 5806 5806 5805 5806 5806 5806 5806 5806 5805 5804 5804 5803 5803 5803 5802 5802 5803 5803 5802 5802 5801 5801 5802
5821 5814 5814 5818 5824 5815 5805 5802 5818 5814 5810 5814 5813 5811 5809 5805 5804 5795 5796 5796 5797 5798 5799 5799 5798 5798 5797 5796 5796 5797 5797 5798 5798 5798 5797 5797 5795 5794 5794 5794 5793 5793 5793 5794 5794 5793 5792 5792 5793
5807 5805 5804 5803 5815 5806 5795 5791 5797 5807 5801 5804 5803 5802 5799 5797 5795 5789 5785 5788 5789 5788 5788 5789 5788 5788 5786 5786 5787 5787 5788 5789 5788 5788 5787 5786 5787 5786 5786 5785 5784 5784 5785 5785 5784 5783 5783 5783 5784
5799 5795 5792 5796 5795 5786 5790 5784 5784 5791 5794 5795 5793 5791 5790 5787 5785 5781 5780 5780 5778 5776 5776 5777 5779 5778 5778 5777 5777 5777 5778 5778 5778 5778 5777 5777 5778 5777 5777 5777 5776 5775 5775 5774 5774 5774 5774 5773 5773
5789 5786 5783 5781 5782 5778 5774 5772 5776 5773 5781 5783 5781 5780 5778 5777 5776 5774 5770 5769 5769 5770 5769 5768 5768 5767 5766 5765 5765 5766 5766 5767 5766 5767 5766 5766 5766 5767 5765 5765 5766 5766 5766 5765 5764 5763 5763 5763 5763
5780 5773 5773 5768 5768 5766 5763 5760 5759 5767 5766 5768 5768 5769 5767 5766 5765 5767 5765 5761 5759 5759 5760 5758 5757 5757 5757 5755 5754 5754 5754 5754 5754 5754 5753 5752 5751 5752 5753 5755 5755 5755 5756 5756 5755 5756 5754 5752 5752
5764 5766 5762 5760 5755 5752 5753 5747 5749 5751 5755 5751 5751 5753 5753 5756 5756 5754 5753 5753 5752 5749 5747 5748 5747 5746 5746 5745 5744 5743 5742 5743 5740 5738 5738 5738 5738 5738 5738 5739 5740 5741 5744 5745 5745 5743 5744 5743 5744
5752 5751 5751 5749 5746 5741 5739 5740 5736 5739 5741 5739 5736 5736 5736 5739 5739 5741 5743 5743 5741 5740 5739 5736 5735 5734 5734 5735 5734 5733 5732 5732 5731 5731 5729 5726 5723 5722 5722 5723 5725 5727 5729 5730 5731 5731 5730 5729 5730
5741 5739 5735 5733 5732 5731 5730 5729 5726 5726 5727 5726 5722 5721 5719 5720 5723 5726 5729 5727 5728 5727 5726 5726 5723 5722 5720 5718 5718 5719 5720 5718 5718 5718 5719 5717 5716 5713 5711 5712 5712 5710 5711 5714 5715 5716 5717 5716 5715
5727 5724 5723 5723 5720 5720 5718 5715 5714 5711 5714 5717 5714 5711 5709 5710 5711 5710 5709 5710 5709 5711 5711 5711 5711 5710 5708 5707 5706 5704 5703 5703 5703 5704 5704 5704 5702 5700 5699 5699 5698 5698 5695 5693 5693 5697 5700 5702 5703
5714 5713 5712 5703 5703 5705 5706 5704 5702 5698 5696 5695 5698 5698 5696 5692 5691 5691 5690 5690 5692 5694 5693 5693 5693 5692 5692 5690 5689 5688 5686 5685 5685 5684 5684 5686 5686 5685 5683 5683 5684 5683 5683 5684 5681 5680 5680 5681 5685
5701 5699 5698 5689 5690 5681 5690 5695 5690 5687 5682 5680 5679 5679 5679 5679 5672 5672 5671 5670 5670 5671 5670 5671 5672 5672 5671 5673 5672 5669 5666 5664 5662 5663 5663 5665 5665 5665 5664 5664 5664 5666 5666 5666 5667 5668 5666 5667 5667
5688 5686 5682 5678 5671 5664 5669 5670 5677 5680 5668 5664 5664 5662 5661 5659 5658 5653 5654 5653 5652 5651 5652 5652 5651 5649 5648 5648 5648 5648 5648 5649 5648 5645 5642 5643 5644 5646 5646 5646 5646 5645 5647 5648 5647 5650 5650 5652 5654
5671 5667 5667 5663 5658 5647 5646 5651 5671 5660 5655 5650 5648 5644 5644 5642 5639 5637 5633 5632 5631 5630 5629 5629 5629 5628 5628 5629 5627 5626 5626 5627 5627 5628 5628 5625 5623 5623 5625 5626 5626 5627 5627 5626 5630 5631 5631 5633 5635
5653 5650 5649 5640 5639 5637 5628 5626 5644 5642 5636 5633 5627 5625 5621 5619 5619 5618 5614 5612 5610 5609 5609 5607 5607 5608 5606 5604 5607 5606 5606 5606 5606 5607 5606 5606 5606 5605 5605 5605 5605 5606 5608 5609 5610 5611 5615 5615 5617